Capitol Logistics 781


RCTP
Taiwan Taoyuan International Airport
Taipei, TW
RKSI
Incheon International Airport
Seoul, KR

Activity Log

Date Flight Route Aircraft Duration
10/17/2019 CPX781 PIANO1C PIANO L3 SALMI B576 SEL SEL1T B744 2h 04m

Route Details

Aircraft Information
Primary: Boeing 747-400BCF
Backup: Boeing 777-200LRF
Route Data
Distance: 788nm
Sched. Duration: 2h 14m
Avg. Duration: 2h 04m (-11m)
Times Flown: 1
Recm'd Route: PIANO1C PIANO L3 SALMI B576 SEL SEL1T
Planned Altitude: 37,000ft
Origin Wx: RCTP 221630Z 01007KT 3000 BR BKN002 19/18 Q1011 NOSIG RMK A2986
Dest. Wx: RKSI 221630Z 05005KT 5000 BR SCT010 BKN030 04/03 Q1020 NOSIG
Notes:

Financial History
Total Freight: 123,630lbs
Average Load: 123,630lbs/flt
Fuel Used: 52,282lbs
Avg. Fuel Used: 52,282lbs/flt
Fuel Expense: $56,987
Avg. Fuel Expense: $56,987
Avg. Fuel Cost: $1.09/lbs
Total Gross Income: $435,178
Pilot Pay: $229
Total Expenses: $47,051
Total Revenue: $330,604
Average Revenue: $435,177.59